Ana Sayfa
METAR-TAF:

METAR-TAF

Havaalanları :

David Wayne Hooks Memorial Airport

Houston / Tomball, Teksas, Amerika Birleşik Devletleri

Enlem: 30-04-03N, Boylam: 095-33-22W, yükseklik: 46 m

Güncel hava durumu gözlemi

Rapor saat 08:53 UTC de 38 dakika önce yapıldı.
Rüzgar kuzey/kuzeybatıdan 5 kt
Sıcaklık 12°C
Nem 67%
Basınç 1024 hPa
Görüş mesafesi: 16.1 km
Açık gökyüzü

METAR: KDWH 070853Z AUTO 34005KT 10SM CLR 12/06 A3024 RMK AO2 SLP238 T01170061 52002

Saat: 03:31 (09:31 UTC)


TAF: eksik

4.000'den fazla havaalanı için hava durumu gözlemleri ve tahminleri (METAR ve TAF raporları).

Kullanılabilir istasyonlar harita üzerinde sarı ve kırmızı noktalarla gösterilir.

İstasyonun adını görmek için fareyi noktanın üzerinde gezdirin.

Sonrasında hava gözlem ve tahminlerini görmek için tıklayın.

Haritayı değiştirmek için: yaklaştırmak için siyah artı işaretli yeşil düğmeye ve uzaklaştırmak için de eksi işaretli düğmeye hızla tıklayın; bitişik haritalar için yeşil okları kullanın.


METAR-TAF: